Flag for Brazil Weather past 2 weeks in Volta Redonda, Rio de Janeiro, Brazil

Now
72 °F

Clear.


Feels Like: 75 °F
Forecast: N/A
Wind: 7 mph from Southeast

Location: Galeao

Current Time: Jul 23, 2014 at 7:38:03 PM

Latest Report: Jul 23, 2014 at 7:00 PM


Visibility: 10 mi

Pressure: 30.01 "Hg

Humidity: 65%

Dew point: 59 °F

Location of Volta RedondaLocation

Historic Weather in Volta Redonda — Graph

°F

Volta Redonda temperature yesterday

Maximum temperature yesterday: 79 °F (at 1:00 PM)
Minimum temperature yesterday: 59 °F (at 7:00 AM)
Average temperature yesterday: 67 °F

Past Weeks' High & Low Weather Summary

 TemperatureHumidityPressure
High86 °F (Jul 18, 11:00 AM)94% (Jul 9, 2:00 AM)30.36 "Hg (Jul 9, 2:00 AM)
Low59 °F (Jul 22, 7:00 AM)28% (Jul 23, 3:00 PM)29.92 "Hg (Jul 18, 3:00 PM)
Average69 °F71%30.18 "Hg
* Reported Jul 8 6:00 PM — Jul 23 6:00 PM, Volta Redonda, Weather by CustomWeather, © 2014

Note: Actual official high and low records may vary slightly from our data, if they occured in-between our weather recording intervals... More about our weather records

Advertising

Volta Redonda weather history for previous 24 hours

 ConditionsComfort  
Time TempWeatherWind HumidityBarometerVisibility
6:00 PM
Jul 23
73 °FClear.6 mph61%30.01 "Hg10 mi
5:00 PM77 °FClear.7 mph44%30.01 "Hg10 mi
4:00 PM81 °FSunny.7 mph39%30.01 "Hg10 mi
3:00 PM82 °FSunny.9 mph28%30.01 "Hg10 mi
2:00 PM82 °FSunny.7 mph30%30.04 "Hg10 mi
1:00 PM81 °FSunny.10 mph34%30.07 "Hg10 mi
12:00 PM79 °FSunny.15 mph45%30.09 "Hg10 mi
11:00 AM79 °FSunny.17 mph39%30.15 "Hg10 mi
10:00 AM75 °FSunny.3 mph50%30.15 "Hg10 mi
9:00 AM73 °FSunny.2 mph57%30.18 "Hg10 mi
8:00 AM70 °FSunny.No wind69%30.15 "Hg10 mi
7:00 AM59 °FSunny.No wind82%30.15 "Hg10 mi
6:00 AM59 °FSunny.No wind82%30.15 "Hg10 mi
5:00 AM59 °FClear.1 mph88%30.12 "Hg10 mi
3:00 AM61 °FClear.No wind83%30.15 "Hg10 mi
2:00 AM63 °FClear.No wind83%30.15 "Hg10 mi
1:00 AM63 °FClear.1 mph83%30.15 "Hg10 mi
12:00 AM64 °FClear.3 mph78%30.15 "Hg10 mi
11:00 PM
Jul 22
64 °FClear.2 mph83%30.18 "Hg10 mi
10:00 PM68 °FClear.2 mph73%30.18 "Hg10 mi
9:00 PM68 °FClear.7 mph78%30.18 "Hg10 mi
Weather by CustomWeather, © 2014

See weather overviewHow to use our weather pages